| time (UTC) | temp F | wind direction | speed MPH | gust MPH | rain 1hr in | rain 24hr in | rain mn in | humidity % | barometer mb |
| 20260504184554 | 71 | 119 | 1.0 | 6.0 | 0.00 | 0.00 | 0.00 | 41 | 1009.5 |
| 20260504183037 | 70 | 192 | 0.0 | 4.0 | 0.00 | 0.00 | 0.00 | 41 | 1009.5 |
| 20260504181523 | 70 | 121 | 0.0 | 8.0 | 0.00 | 0.00 | 0.00 | 40 | 1009.6 |
| 20260504180001 | 70 | 162 | 0.0 | 8.0 | 0.00 | 0.00 | 0.00 | 40 | 1009.7 |
| 20260504174606 | 69 | 142 | 1.0 | 6.0 | 0.00 | 0.00 | 0.00 | 38 | 1009.7 |
| 20260504173057 | 69 | 136 | 2.0 | 9.0 | 0.00 | 0.00 | 0.00 | 42 | 1009.7 |
| 20260504171548 | 67 | 128 | 0.0 | 4.0 | 0.00 | 0.00 | 0.00 | 45 | 1009.7 |
| 20260504081529 | 47 | 5 | 0.0 | 0.0 | 0.00 | 0.00 | 0.00 | 33 | 1008.7 |
| 20260504050009 | 54 | 5 | 0.0 | 1.0 | 0.00 | 0.00 | 0.00 | 64 | 1008.4 |
| 20260504044517 | 55 | 5 | 0.0 | 1.0 | 0.00 | 0.00 | 0.00 | 64 | 1008.3 |
| 20260504043004 | 55 | 5 | 0.0 | 1.0 | 0.00 | 0.00 | 0.00 | 64 | 1008.2 |
| 20260504041557 | 58 | 5 | 0.0 | 1.0 | 0.00 | 0.00 | 0.00 | 63 | 1008.1 |
| 20260504034553 | 62 | 9 | 2.0 | 4.0 | 0.00 | 0.00 | 0.00 | 52 | 1007.8 |
| 20260504033032 | 63 | 360 | 2.0 | 4.0 | 0.00 | 0.00 | 0.00 | 51 | 1007.7 |
| 20260504031528 | 64 | 5 | 3.0 | 4.0 | 0.00 | 0.00 | 0.00 | 48 | 1007.7 |
| 20260504030038 | 65 | 5 | 2.0 | 3.0 | 0.00 | 0.00 | 0.00 | 49 | 1007.7 |
| 20260504024518 | 67 | 317 | 2.0 | 4.0 | 0.00 | 0.00 | 0.00 | 47 | 1007.7 |
| 20260504023016 | 70 | 279 | 0.0 | 2.0 | 0.00 | 0.00 | 0.00 | 45 | 1007.7 |
| 20260504021510 | 74 | 279 | 1.0 | 4.0 | 0.00 | 0.00 | 0.00 | 39 | 1007.7 |
| 20260504020005 | 77 | 210 | 0.0 | 1.0 | 0.00 | 0.00 | 0.00 | 31 | 1007.8 |
| 20260504014551 | 77 | 172 | 0.0 | 5.0 | 0.00 | 0.00 | 0.00 | 31 | 1007.9 |
| 20260504013049 | 77 | 281 | 0.0 | 2.0 | 0.00 | 0.00 | 0.00 | 32 | 1008.0 |
| 20260504011541 | 77 | 224 | 0.0 | 4.0 | 0.00 | 0.00 | 0.00 | 33 | 1008.2 |
| 20260504010043 | 77 | 236 | 0.0 | 3.0 | 0.00 | 0.00 | 0.00 | 31 | 1008.2 |
| 20260504004536 | 78 | 262 | 0.0 | 3.0 | 0.00 | 0.00 | 0.00 | 30 | 1008.4 |
| 20260504003031 | 79 | 225 | 1.0 | 3.0 | 0.00 | 0.00 | 0.00 | 28 | 1008.6 |
| 20260504001523 | 79 | 271 | 1.0 | 5.0 | 0.00 | 0.00 | 0.00 | 28 | 1008.7 |
| 20260504000019 | 79 | 257 | 0.0 | 5.0 | 0.00 | 0.00 | 0.00 | 29 | 1008.8 |
| 20260503234551 | 80 | 206 | 1.0 | 5.0 | 0.00 | 0.00 | 0.00 | 31 | 1008.9 |
| 20260503233049 | 79 | 190 | 1.0 | 5.0 | 0.00 | 0.00 | 0.00 | 30 | 1009.1 |
| 20260503231541 | 80 | 264 | 2.0 | 7.0 | 0.00 | 0.00 | 0.00 | 32 | 1009.3 |
| 20260503230039 | 80 | 221 | 1.0 | 8.0 | 0.00 | 0.00 | 0.00 | 33 | 1009.4 |
| 20260503224532 | 80 | 263 | 0.0 | 5.0 | 0.00 | 0.00 | 0.00 | 33 | 1009.8 |
| 20260503223027 | 79 | 202 | 0.0 | 4.0 | 0.00 | 0.00 | 0.00 | 33 | 1010.0 |
| 20260503221523 | 79 | 246 | 1.0 | 5.0 | 0.00 | 0.00 | 0.00 | 27 | 1010.2 |
| 20260503220019 | 79 | 185 | 2.0 | 6.0 | 0.00 | 0.00 | 0.00 | 28 | 1010.5 |
| 20260503214601 | 78 | 316 | 0.0 | 7.0 | 0.00 | 0.00 | 0.00 | 27 | 1010.7 |
| 20260503213107 | 78 | 219 | 1.0 | 5.0 | 0.00 | 0.00 | 0.00 | 28 | 1011.0 |
| 20260503211552 | 78 | 209 | 1.0 | 5.0 | 0.00 | 0.00 | 0.00 | 27 | 1011.0 |
| 20260503210056 | 77 | 263 | 1.0 | 4.0 | 0.00 | 0.00 | 0.00 | 27 | 1011.4 |
| 20260503204551 | 77 | 207 | 2.0 | 5.0 | 0.00 | 0.00 | 0.00 | 27 | 1011.7 |
| 20260503203038 | 76 | 242 | 1.0 | 4.0 | 0.00 | 0.00 | 0.00 | 30 | 1012.0 |
| 20260503201533 | 75 | 273 | 0.0 | 5.0 | 0.00 | 0.00 | 0.00 | 31 | 1012.2 |
| 20260503200030 | 74 | 287 | 2.0 | 5.0 | 0.00 | 0.00 | 0.00 | 29 | 1012.4 |
| 20260503194510 | 74 | 246 | 1.0 | 3.0 | 0.00 | 0.00 | 0.00 | 31 | 1012.7 |
| 20260503193003 | 73 | 240 | 2.0 | 7.0 | 0.00 | 0.00 | 0.00 | 31 | 1012.9 |
| 20260503191544 | 73 | 172 | 0.0 | 5.0 | 0.00 | 0.00 | 0.00 | 35 | 1013.1 |
| 20260503190039 | 71 | 312 | 0.0 | 5.0 | 0.00 | 0.00 | 0.00 | 40 | 1013.4 |